Tracking 29594 objects as of 21-Sep-2024
HD Live streaming from Space Station
objects crossing your sky now

TABLETSAT AURORA

Track TABLETSAT AURORA now!
10-day predictions
TABLETSAT AURORA is classified as:


NORAD ID: 40017
Int'l Code: 2014-033H
Perigee: 548.2 km
Apogee: 567.8 km
Inclination: 98.1 °
Period: 95.7 minutes
Semi major axis: 6929 km
RCS: Unknown
Launch date: June 19, 2014
Source: Commonwealth of Independent States (former USSR) (CIS)
Launch site: Orenburg, Russia (OREN)

Uplink (MHz):
Downlink (MHz): 435.550/436.100
Beacon (MHz): 437.050
Mode: 9600bps GMSK D-STAR
Call sign:
Status: Inactive

Your satellite tracking list
Your tracking list is empty




NASA's NSSDC Master Catalog

Two Line Element Set (TLE):
1 40017U 14033H   24264.86493610  .00009124  00000-0  64251-3 0  9995
2 40017  98.1113 292.5898 0014138 201.3121 158.7517 15.05200193559365
Source of the keplerian elements: AFSPC